Voltar ao catálogo

STARLINK-30339

AtivoComunicaçõesVLEO
NORAD 57882·PAYLOAD·🇺🇸 United States

Lançado Sep 16, 2023 de Cape Canaveral Space Force Station

Loading…

Próximas Passagens (próximas 24 horas)

TLE

AtualizadoSource: CelesTrak SupGP

Época: Sep 14, 2026, 21:31 UTC

1 57882C 23144U   26257.89701389 -.00007936  00000+0 -28744-3 0  2572
2 57882  43.0006 297.0641 0001472 266.2174 303.8885 15.27580494    17

Acompanhe STARLINK-30339 em tempo real com AllMySat

Download on the App Store